Погода в Песках

Украина / Харьковская область     49°58′53″N   37°54′26″E
темп.,
°C
ветер,
м/с
пор.,
м/с
влажн.,
%
обл.,
%
осадки,
мм/ч
давл.,
гПа
погр.,
м
13 мая, чт
чт1300:00+7вюв389257 0.1 1015145
03:00+9юв5109680 3.3 1015315
06:00+10вюв4898100 2.4 1014264
09:00+13ююв468565 2.4 1014680
12:00+17ююв466688 0.2 10141448
15:00+19ю466221 0.5 10141581
18:00+19ююв2568100 0.1 1013399
21:00+14вюв2282100 0.1 101416
14 мая, пт
пт1400:00+13вюв228868 0.0 101416
03:00+12вюв339092 0.0 101447
06:00+13в31092100 0.0 1013217
09:00+19юв71273100 0.0 1013550
12:00+21ююв6868100 0.0 1013857
15:00+22юв71268100 0.4 10121062
18:00+22юв3973100 0.0 1010383
21:00+19вюв4128367 0.0 1010225
15 мая, сб
сб1500:00+17ю379287 0.0 1010126
03:00+15юз229193 0.0 101111
06:00+15юз2485100 0.0 101298
09:00+19юз456756 0.0 1013498
12:00+22юз565242 0.0 10141219
15:00+23юз56505 0.0 10131759
18:00+22юз356170 0.0 1013305
21:00+17зсз1169100 0.0 101411
16 мая, вс
вс1600:00+16всв2273100 0.0 101411
03:00+14в117899 0.0 101411
06:00+15всв228067 0.0 101440
09:00+21всв346480 0.0 1014480
12:00+24св4453100 0.0 10131158
15:00+24св5655100 0.0 10121581
18:00+23ссв5871100 0.0 1011447
21:00+18св3483100 0.0 101155
17 мая, пн
пн1700:00+16св477874 0.0 1010113
03:00+15всв487763 0.0 1009132
06:00+16вюв4117711 0.0 1009204
09:00+21вюв6125731 0.0 1009438
12:00+26вюв713473 0.0 10081192
15:00+27юв713485 0.0 10082035
18:00+24юв510597 0.0 1007367
21:00+19вюв3575100 0.0 100872